Theta_e
330 330 333 324 325 323 320 319 303 309 306 296 295 297 294 303 303 301 301 304 300 304 306 306 304 306 303 301 303 304 304 301 302 296 299 317 331 339 337 337 343 341 347 350 350 351 351 351 353 354 354 353 353 353 353 352 352 351 351 350 349 349 348 348 347 347 347 347 347 347 347 347 349 349 350 350 350 349 349 348 347 347 346 345 346 346 345 345 344 344 342 341 339 338 337 338 338
324 322 323 326 325 324 317 315 306 301 300 293 295 297 297 301 302 300 300 301 302 304 305 305 305 305 307 307 305 305 305 307 309 309 318 327 330 332 337 338 343 341 344 349 350 350 351 351 350 353 354 353 353 352 352 352 352 351 350 350 349 349 348 348 347 347 347 347 347 347 347 347 348 348 349 349 349 349 348 347 347 347 347 346 345 346 346 345 343 342 341 339 337 336 336 335 337
321 321 323 322 323 320 316 314 301 298 294 290 292 295 299 299 298 300 302 303 305 306 306 306 306 306 306 306 304 303 298 312 313 315 318 329 324 325 334 339 337 342 344 349 349 348 351 350 348 353 354 353 352 352 352 352 351 351 350 350 349 348 348 347 347 346 346 347 346 346 347 347 347 348 348 348 349 349 348 348 347 347 346 346 346 345 345 344 342 341 340 339 338 335 335 334 336
326 326 323 319 316 320 311 306 303 297 293 291 291 299 299 298 299 301 303 305 304 305 306 305 303 306 305 303 304 308 306 309 316 317 314 323 325 330 330 336 334 341 343 347 347 348 351 347 348 353 354 353 352 351 351 351 351 351 350 349 349 348 347 346 346 346 346 347 347 347 347 347 347 347 347 348 348 347 347 346 347 346 345 345 345 345 345 342 341 340 339 338 337 335 333 333 335
325 328 327 320 320 313 310 306 299 297 292 294 291 298 298 300 300 302 303 304 304 303 304 305 303 306 307 305 307 302 302 312 318 325 324 329 333 335 337 339 336 342 342 343 345 348 350 345 348 350 354 352 351 352 351 351 350 351 350 349 349 348 347 346 346 346 346 346 346 347 346 346 346 347 347 347 348 346 347 346 347 345 345 344 345 345 344 342 340 339 337 337 335 334 331 332 335
326 324 329 322 313 316 309 298 299 294 297 299 294 296 299 300 301 302 303 303 304 302 304 304 303 304 304 308 311 305 314 303 316 325 326 329 334 340 335 334 335 340 341 343 346 350 349 344 349 350 353 351 351 350 350 350 349 349 350 349 348 348 347 346 346 346 346 346 347 346 346 346 346 346 347 347 347 347 346 346 347 346 344 344 344 344 344 342 340 338 336 334 334 332 330 332 334
321 317 320 322 318 315 306 299 295 295 297 300 297 298 299 300 301 302 301 302 303 303 305 304 305 304 302 308 312 318 323 322 320 325 330 333 336 337 339 337 337 338 341 342 350 350 348 344 350 353 352 351 350 350 350 350 350 349 348 348 348 348 347 347 346 346 346 346 346 346 346 346 346 346 346 347 346 346 347 346 345 343 343 343 342 343 343 341 340 337 335 333 332 331 329 331 334
326 318 319 309 307 304 301 298 297 296 297 302 301 300 301 302 304 303 302 302 300 301 303 305 304 302 302 308 304 313 321 324 326 330 331 332 335 335 338 339 336 338 340 348 348 346 344 344 350 350 352 352 352 351 350 349 350 350 349 348 348 347 348 347 346 346 346 346 346 346 346 346 345 345 345 346 346 345 345 345 343 343 342 343 342 341 341 340 339 336 334 333 331 329 328 330 333
323 317 321 312 304 304 299 296 296 299 299 301 301 304 308 304 304 303 300 301 302 303 302 303 302 300 303 306 304 310 313 321 328 331 332 333 333 334 336 337 339 340 342 346 348 347 346 341 346 349 349 351 352 351 351 349 350 349 348 349 349 348 348 347 347 346 346 347 347 346 346 346 346 345 345 345 345 344 344 343 343 342 342 342 343 341 338 337 337 336 334 332 331 328 327 329 331
314 314 306 308 307 299 298 296 295 297 299 301 300 301 302 303 303 303 302 301 302 303 303 304 303 299 304 302 303 308 311 320 324 327 331 333 333 334 334 335 336 340 340 341 348 348 344 340 337 343 346 350 351 350 350 349 349 349 349 348 348 349 348 347 347 347 347 347 346 346 347 346 344 345 344 344 344 343 343 343 342 342 342 341 340 338 337 336 336 335 334 331 329 327 326 327 329
308 315 315 305 300 297 297 295 296 299 299 301 301 303 303 303 304 302 302 302 304 302 303 303 303 301 302 303 303 312 314 319 322 323 327 333 333 333 333 334 335 337 338 339 340 345 344 343 337 336 341 345 348 349 349 349 349 347 347 348 347 345 348 348 347 348 348 347 346 346 346 347 346 345 344 343 344 343 343 343 342 342 342 341 339 337 336 335 335 334 333 330 328 325 325 328 329
306 306 309 300 298 298 296 296 298 298 300 300 299 303 303 304 304 302 302 301 302 302 302 303 301 303 302 302 303 305 308 309 316 324 327 331 333 334 333 333 334 335 336 336 337 339 344 343 344 338 334 336 343 346 346 347 347 347 347 347 347 348 348 348 348 348 348 347 346 345 345 346 346 345 344 344 344 343 342 342 342 341 341 341 340 337 336 335 334 334 332 328 325 324 324 325 327
310 307 300 297 298 296 298 297 297 297 298 298 299 302 303 303 302 302 302 303 302 302 301 304 304 305 300 302 304 307 305 307 311 320 328 327 330 334 333 333 333 334 335 335 335 336 338 344 344 344 336 331 332 336 341 342 344 347 347 347 347 347 349 349 348 348 348 347 346 345 345 346 345 344 343 343 343 343 342 342 342 341 341 341 339 337 336 335 334 333 330 328 324 322 323 323 324
313 308 305 300 302 297 296 297 297 295 295 299 300 302 304 303 302 303 302 301 301 300 304 306 306 302 301 302 303 302 304 307 309 316 325 328 329 332 333 331 331 331 333 334 333 335 336 338 340 344 342 342 344 335 333 338 342 345 345 345 345 343 345 348 348 348 347 347 346 345 344 344 345 344 344 344 342 342 342 341 342 341 340 340 337 336 335 334 333 332 330 327 324 322 322 322 322
312 308 306 302 296 295 299 296 296 296 295 299 301 302 302 304 304 304 302 300 301 305 305 306 306 304 297 300 301 303 304 307 310 316 326 326 326 330 331 331 331 330 331 333 334 334 335 336 338 339 343 343 343 344 344 337 334 340 343 342 342 343 342 341 345 344 343 344 343 341 339 337 335 336 338 340 341 339 337 336 342 341 340 339 337 335 335 334 333 331 329 325 322 320 320 320 320
314 307 306 300 295 293 298 297 299 297 295 300 303 303 302 303 305 303 303 304 305 308 306 300 305 301 302 301 302 303 305 309 310 318 321 325 323 324 325 325 324 324 325 327 330 331 334 334 335 337 339 341 342 342 343 344 332 333 337 338 339 339 338 339 338 338 335 335 334 334 331 329 327 330 327 333 333 337 336 335 337 338 340 338 336 335 334 334 333 331 328 325 321 319 319 318 317
313 312 298 296 294 293 297 299 297 292 298 300 303 302 301 300 305 304 307 307 303 302 303 304 302 306 302 302 304 306 307 310 312 317 318 317 319 312 312 313 315 315 321 318 317 320 331 334 333 334 336 338 340 341 341 346 338 330 331 330 332 336 336 335 335 327 323 322 324 322 324 337 338 336 333 336 325 335 325 327 334 338 340 338 336 335 335 334 332 331 328 324 320 317 319 318 318
312 304 299 296 297 294 298 298 299 301 299 299 301 302 302 300 303 304 305 303 303 303 302 303 304 304 305 305 307 308 309 309 310 311 310 310 310 308 309 310 310 312 313 314 316 317 317 320 326 333 333 335 337 341 343 345 340 335 342 338 336 333 330 329 330 338 335 337 325 327 337 339 340 340 339 334 336 331 326 324 331 337 339 336 336 335 335 334 333 331 329 324 321 317 316 308 308
309 300 297 295 295 297 301 301 301 300 299 302 301 302 301 300 302 302 300 300 301 300 301 302 301 303 304 305 305 306 307 308 309 309 309 309 308 308 308 309 310 310 311 312 315 316 317 318 319 320 326 334 335 337 341 340 343 342 342 342 341 332 334 334 338 337 339 340 339 339 336 339 337 338 338 336 337 328 330 323 329 333 335 333 334 336 335 334 333 331 329 325 321 321 312 312 309
307 301 298 296 300 299 302 303 302 303 303 301 301 301 300 302 302 304 300 298 301 299 298 301 301 300 301 303 304 305 306 307 308 308 308 308 308 308 308 308 308 310 310 312 313 317 316 316 317 319 321 326 333 335 336 336 338 343 341 341 341 341 340 339 338 339 337 338 340 340 338 336 338 336 328 327 331 334 326 322 327 328 330 329 329 331 332 333 333 330 328 327 323 317 315 313 311
306 302 297 300 299 298 300 303 303 302 302 302 301 301 299 302 302 303 301 297 299 298 299 300 300 300 301 302 303 304 305 305 306 307 307 307 308 308 307 308 307 309 310 312 313 315 315 315 316 317 319 320 328 334 335 334 335 337 339 339 340 339 339 338 339 337 338 337 337 336 338 337 338 337 336 335 336 335 331 330 330 332 331 329 325 328 327 328 325 322 321 319 318 318 316 316 314
305 299 302 301 300 299 301 302 302 301 302 301 301 298 301 303 303 301 301 297 296 298 300 300 301 301 301 301 302 304 304 304 305 305 305 306 306 306 307 307 309 310 310 311 312 312 314 314 315 316 318 319 324 332 335 333 336 334 336 337 338 339 338 337 336 335 337 337 338 337 336 337 336 335 336 334 333 335 333 332 332 333 331 331 330 330 328 327 326 325 324 321 319 318 315 313 312
299 301 301 302 300 301 303 303 302 300 301 301 300 302 302 301 300 303 301 300 298 301 301 301 301 302 302 302 303 302 303 303 303 304 305 304 305 306 306 307 306 307 308 311 312 312 313 313 314 316 317 317 322 331 334 334 334 335 336 335 336 336 337 337 336 336 337 338 337 336 335 334 334 333 333 334 333 334 333 332 332 332 331 330 329 329 330 329 328 327 325 323 320 317 314 313 312
302 298 301 301 302 302 304 302 301 300 301 301 302 302 300 300 297 302 300 300 300 301 302 301 301 302 303 301 301 302 302 302 303 305 305 305 305 306 307 306 307 308 309 311 312 313 313 313 315 317 317 317 322 330 332 333 334 335 335 333 332 331 333 333 333 333 335 336 334 335 334 335 334 332 332 331 330 331 332 332 332 331 331 331 329 330 328 327 326 326 325 323 320 318 316 315 313
300 300 302 301 302 303 302 301 300 301 300 302 301 299 299 300 300 300 299 299 300 300 301 301 301 301 301 301 301 301 301 302 302 304 306 304 306 307 307 306 307 308 309 310 310 312 312 313 316 318 318 317 322 328 329 331 332 332 330 328 327 326 328 328 327 327 328 331 332 332 331 333 333 332 332 331 331 331 331 332 331 330 330 330 330 330 328 327 325 325 325 324 323 321 319 315 314
301 300 302 301 301 303 301 301 301 300 302 302 299 298 300 301 300 299 299 300 300 301 300 301 301 300 300 300 300 300 300 301 303 302 303 305 305 304 305 305 306 307 308 309 308 309 310 314 318 321 322 322 324 328 329 329 327 327 326 325 323 323 323 323 323 323 323 325 325 329 330 331 332 331 329 329 329 329 330 331 330 329 328 327 328 328 328 328 325 323 322 323 322 321 318 316 315
302 301 301 300 302 302 302 301 302 302 301 300 298 298 300 300 299 293 299 300 300 300 300 300 300 298 299 299 300 300 300 300 300 302 302 303 302 302 303 303 304 306 307 306 307 308 311 316 319 321 322 323 325 324 324 323 323 323 322 320 319 319 319 319 320 321 321 321 321 323 325 326 328 328 328 327 326 325 324 323 323 323 323 323 324 324 323 322 321 320 320 319 320 319 319 318 316
303 301 300 300 301 302 302 301 302 301 300 300 300 298 299 299 298 295 298 299 300 299 299 299 299 298 298 299 299 300 299 300 300 300 300 299 299 300 301 301 302 305 305 305 307 309 312 317 318 318 318 320 319 319 318 318 319 319 319 318 317 316 316 316 316 317 317 318 318 319 320 322 323 325 325 323 322 321 319 319 319 318 319 320 320 321 321 321 319 318 319 318 319 319 319 318 318
302 301 296 300 301 300 301 300 301 301 299 300 301 297 295 294 294 297 299 299 300 299 299 299 299 298 298 298 298 298 297 299 299 298 299 298 300 301 301 302 303 303 305 306 307 310 315 316 316 315 314 315 315 315 314 314 315 316 316 315 314 314 313 312 311 312 314 314 315 317 318 320 320 321 320 320 318 318 318 318 318 318 318 319 319 319 319 319 318 318 317 318 317 318 317 316 317
302 300 297 297 297 297 302 302 300 298 299 299 299 288 292 295 297 297 299 299 299 299 297 297 297 297 297 298 297 297 298 298 297 298 297 298 300 301 302 303 303 302 303 305 307 309 313 314 314 313 312 311 311 311 312 311 311 310 311 311 311 311 309 309 308 309 309 310 310 311 313 315 317 319 319 318 317 317 316 316 316 316 317 317 318 318 318 317 316 316 316 316 314 314 313 313 314
295 300 299 293 292 292 299 300 298 297 298 298 299 290 291 295 296 298 298 299 298 297 297 297 297 297 297 298 297 297 298 297 297 298 299 300 300 300 302 302 303 303 304 305 305 307 311 310 311 309 309 308 308 308 308 308 308 307 308 308 308 308 308 307 307 307 307 306 307 307 309 310 311 313 316 317 316 315 314 313 314 315 315 314 314 314 316 314 313 311 310 314 315 314 313 312 312
297 294 291 294 292 295 297 300 298 296 296 298 297 290 293 295 296 297 298 298 299 297 297 297 297 296 297 297 297 297 297 298 298 298 299 299 298 299 301 302 302 303 303 304 306 308 309 308 308 306 307 306 305 305 306 306 306 305 305 305 305 305 305 304 304 305 305 305 304 305 306 306 307 309 310 310 310 310 310 310 311 312 312 312 312 312 312 311 310 308 307 307 309 309 309 308 308
296 293 291 293 293 294 295 298 300 301 297 298 296 291 295 294 297 297 298 298 298 297 297 297 297 297 297 296 296 296 297 296 297 297 297 298 299 299 301 301 301 302 303 304 305 307 307 307 307 305 305 306 305 304 304 304 303 302 302 302 302 301 301 301 301 302 302 302 303 302 303 304 304 305 306 307 306 306 305 304 304 305 307 308 308 308 308 308 308 306 303 303 305 304 303 303 303
293 295 291 295 293 294 292 296 299 300 297 293 296 292 294 295 296 297 297 298 297 296 297 297 296 295 296 295 296 296 297 296 295 295 296 298 298 299 301 302 302 302 303 305 306 307 306 306 306 305 304 304 304 304 303 303 302 301 300 300 299 299 299 299 298 299 299 299 300 300 302 302 303 304 304 305 304 304 303 302 303 303 304 304 303 304 304 305 306 306 304 302 302 301 300 300 300
291 293 291 293 296 296 294 292 296 298 297 294 294 293 295 295 296 296 297 298 297 296 297 296 296 295 295 296 295 296 296 295 294 295 297 298 299 299 300 301 301 302 303 304 307 308 307 306 306 306 305 304 303 303 302 302 301 300 300 299 298 297 297 297 297 297 297 297 298 298 299 299 300 302 303 303 303 302 302 302 302 302 301 301 302 302 302 303 304 305 305 304 301 300 299 299 299
295 296 295 294 292 293 293 296 297 298 294 293 294 293 295 296 294 295 296 297 296 296 297 296 296 295 295 295 295 295 295 294 295 296 298 298 298 299 300 301 301 302 303 304 305 307 305 305 305 305 305 305 305 304 303 302 301 299 298 298 297 296 296 296 296 295 295 295 296 296 296 296 297 298 299 300 301 301 301 301 301 301 300 299 299 299 299 300 300 301 303 301 300 298 298 298 297
298 298 296 294 294 294 298 295 298 297 296 294 295 295 295 297 296 295 296 296 296 296 295 295 294 294 294 294 295 295 295 294 296 297 297 298 298 298 300 301 301 302 302 304 303 303 303 304 304 303 303 304 303 303 302 301 298 297 297 296 295 295 294 294 293 293 293 293 294 294 294 294 295 295 296 296 297 297 297 297 297 297 297 296 296 295 296 296 297 298 298 299 298 296 296 297 297
297 296 294 292 295 292 297 296 296 298 295 293 295 294 296 297 299 296 296 295 294 295 295 294 294 294 294 294 294 294 294 295 295 295 296 297 296 299 299 300 301 300 299 301 302 303 303 303 302 302 302 302 300 299 297 296 295 294 294 293 293 292 292 291 291 291 292 293 292 293 293 293 293 293 294 294 294 294 293 293 293 293 293 292 292 293 292 293 293 294 295 296 298 296 295 296 295
296 293 293 291 292 296 298 295 296 296 295 291 294 294 295 297 299 296 295 294 296 297 296 296 295 294 294 294 294 294 293 294 294 294 296 296 297 298 298 299 298 299 299 299 302 305 303 301 300 299 298 298 297 297 296 295 295 295 294 292 292 291 292 291 291 291 291 291 291 291 291 292 292 292 292 292 293 292 292 291 291 291 291 291 290 290 291 291 291 291 291 291 293 294 295 296 292
294 294 290 289 294 294 290 292 296 295 294 293 293 293 295 298 299 298 296 296 295 298 297 298 296 294 294 294 294 293 293 293 293 293 294 295 296 296 297 297 298 299 298 299 301 301 301 300 299 297 296 295 295 295 295 295 295 294 294 293 292 291 289 290 290 290 290 290 289 290 290 291 291 291 291 291 291 291 291 290 290 290 290 290 289 288 289 289 289 290 289 290 290 288 288 289 291
295 295 292 292 294 294 293 292 293 294 295 295 293 291 292 295 295 297 294 294 293 293 293 293 293 295 295 295 294 294 294 293 293 293 293 294 295 295 296 297 298 297 298 297 298 298 299 299 298 297 295 295 295 295 294 294 293 293 293 292 292 291 290 288 288 287 288 289 289 289 289 290 290 290 290 290 290 290 290 290 289 289 289 289 289 288 288 288 289 289 289 288 288 287 287 286 288
292 295 295 295 296 294 295 297 294 291 290 293 292 283 285 294 295 296 291 289 291 291 291 291 292 292 292 291 292 293 295 294 293 293 293 294 294 294 296 296 296 296 296 296 296 297 297 297 297 297 296 295 295 295 295 294 293 292 291 290 288 287 286 285 285 285 286 286 287 288 289 289 289 289 289 289 290 290 289 289 289 288 288 289 289 288 288 288 288 288 288 287 287 288 287 286 285
290 292 298 297 296 296 296 294 293 284 282 291 294 284 283 292 293 293 289 290 290 290 290 291 292 292 291 291 292 291 293 293 293 293 293 293 293 294 295 295 295 295 295 296 295 295 295 295 295 294 294 294 296 295 295 294 292 292 291 289 288 286 286 286 286 286 286 286 287 287 288 289 289 288 289 289 289 289 289 288 288 288 288 288 288 288 287 287 288 288 288 288 287 288 287 285 285
289 297 299 299 297 296 295 295 293 290 294 295 292 291 283 285 292 293 290 290 290 289 289 291 291 291 291 291 292 291 291 291 292 292 292 293 293 294 294 295 294 294 294 293 293 293 293 293 293 293 293 293 294 294 293 293 291 290 289 288 288 287 286 286 287 287 287 287 286 286 287 287 288 288 288 288 288 288 288 287 287 287 287 287 287 287 287 287 287 288 287 287 287 287 286 284 283
294 296 299 296 298 297 296 294 290 289 287 284 286 291 283 283 290 292 291 288 289 289 289 290 291 291 291 291 292 291 292 291 291 291 292 292 293 293 293 292 293 293 293 292 292 291 292 292 292 292 292 292 292 292 292 291 291 290 289 288 287 287 287 287 287 288 287 287 286 286 286 286 287 288 288 288 287 287 287 287 286 286 286 286 286 287 286 286 286 286 286 286 285 286 286 285 284
296 298 298 296 297 295 296 290 288 287 286 283 285 290 283 285 290 288 290 289 289 290 290 290 291 290 290 291 291 292 292 291 292 292 292 291 291 291 291 291 291 290 291 292 291 292 292 291 291 291 291 291 292 291 291 290 290 289 288 287 287 287 287 287 287 287 286 286 286 285 285 285 285 286 287 287 287 287 286 286 286 285 285 285 285 285 285 285 285 285 285 285 285 284 285 285 284
298 298 295 293 292 290 290 290 287 284 282 284 289 291 288 283 289 289 288 289 293 293 291 291 291 290 291 291 291 291 291 291 291 291 291 290 289 289 290 289 289 290 290 291 291 291 291 291 290 290 290 291 291 291 290 290 290 289 288 288 287 287 287 287 286 286 286 285 285 285 285 285 285 285 285 285 286 286 286 286 285 285 285 285 285 284 284 284 284 284 285 284 283 283 284 283 284
297 293 290 290 287 287 285 285 286 280 281 284 289 290 290 281 284 291 293 294 294 295 291 291 290 290 290 291 291 291 291 291 291 290 288 288 288 288 289 288 289 289 290 290 290 290 290 290 290 289 290 290 290 290 290 290 290 289 289 289 288 288 288 287 286 286 286 285 285 285 285 285 284 285 284 284 284 285 285 284 284 284 284 284 284 284 284 284 284 284 283 283 283 282 283 283 282
295 292 290 285 282 281 278 281 278 279 280 281 285 290 285 286 291 291 292 293 292 294 294 292 291 290 290 290 291 290 290 290 289 288 287 287 287 287 287 288 288 288 289 289 290 290 290 289 289 289 289 289 290 290 290 290 289 289 289 289 288 288 288 287 287 286 286 285 285 285 284 283 283 283 283 283 283 283 284 283 283 283 282 283 283 283 283 283 283 282 283 282 282 281 282 282 282
292 290 286 283 281 279 276 278 280 280 282 283 284 287 284 287 289 297 296 290 292 291 294 293 292 291 291 290 290 290 290 289 289 288 287 287 287 287 287 287 288 288 288 289 289 289 289 289 289 288 288 289 289 289 289 289 289 289 289 289 289 288 287 287 287 286 286 286 285 284 284 283 283 282 282 282 283 283 283 283 283 283 282 282 282 282 282 282 282 281 281 281 280 281 281 281 280
292 294 291 287 286 280 276 280 278 279 280 281 284 282 280 281 286 287 288 289 289 290 292 293 292 292 291 291 290 290 290 289 289 288 288 288 288 287 287 288 288 288 288 288 288 288 288 288 288 288 288 288 288 288 289 289 288 289 289 288 288 288 287 287 286 286 286 285 285 284 283 283 282 282 282 283 283 282 282 282 282 282 282 281 281 281 282 281 281 281 281 280 280 281 280 280 279
291 294 294 288 286 288 284 282 281 279 279 277 278 281 283 286 288 288 288 288 289 290 291 291 290 291 290 290 289 289 289 289 288 288 288 288 288 287 287 287 287 287 288 288 288 288 288 288 288 288 288 288 288 288 288 288 288 288 288 287 287 287 287 286 286 286 285 285 284 283 283 283 282 282 283 282 282 281 281 281 281 281 281 281 280 279 279 279 279 279 279 278 279 282 279 278 278
289 291 287 289 293 292 285 281 280 280 279 278 283 282 284 288 287 287 287 287 287 288 289 289 290 290 289 289 289 289 289 289 288 288 287 287 287 286 287 287 287 287 287 288 288 288 288 288 288 287 287 288 288 288 288 288 288 287 287 287 287 287 286 285 285 284 284 284 283 283 282 282 283 282 283 282 281 280 281 280 280 280 280 279 278 278 278 277 277 277 278 277 278 278 278 277 278
291 284 289 293 295 292 286 281 280 279 278 281 281 281 280 282 283 285 285 284 285 287 288 289 289 289 288 289 289 289 289 288 288 288 287 287 286 286 286 287 287 287 287 288 288 288 288 288 288 287 287 287 287 288 288 287 287 287 287 286 286 286 285 285 285 284 284 283 282 282 282 281 281 282 282 282 280 280 279 280 278 278 278 277 277 277 276 276 277 277 277 277 277 277 277 277 278
291 288 296 290 282 282 284 283 279 277 279 281 280 282 283 285 286 282 284 285 285 286 288 288 288 288 288 288 289 289 288 288 287 287 287 286 286 286 286 286 286 287 287 288 288 288 288 288 288 288 287 287 287 288 287 287 287 287 287 286 285 285 285 284 284 284 283 282 282 281 281 280 280 280 280 279 278 278 278 277 277 276 276 276 276 276 276 276 276 276 277 277 276 276 276 275 276
294 294 289 294 287 283 282 285 282 283 280 278 282 281 282 287 289 287 288 288 288 287 287 288 289 289 289 289 289 289 288 288 288 287 287 286 286 285 285 286 286 286 287 287 287 287 287 287 287 287 287 287 287 287 287 286 286 286 285 285 284 284 284 283 283 282 282 281 281 280 280 279 279 279 278 278 277 277 276 276 276 276 275 275 275 275 275 275 275 275 275 276 276 275 275 274 275
285 285 283 288 285 288 286 286 285 282 279 280 279 279 283 288 294 291 292 291 290 288 288 289 290 290 290 290 289 289 289 288 288 287 287 286 286 285 285 284 285 285 286 287 287 286 286 287 286 286 286 286 286 286 286 286 285 285 284 283 283 283 282 282 282 281 280 280 279 279 278 278 278 277 277 277 277 276 276 275 275 276 275 275 274 274 275 274 274 274 274 274 274 274 274 274 274
291 289 287 289 287 284 281 281 287 285 282 280 280 280 282 291 292 293 294 293 292 291 290 290 290 290 290 290 290 290 289 288 288 288 287 286 285 284 284 284 284 285 285 285 286 286 285 285 286 286 286 286 285 285 285 285 284 284 282 282 281 281 281 280 279 279 278 278 277 278 277 277 276 277 276 276 276 276 275 275 275 275 275 274 274 274 274 273 273 273 272 276 275 273 273 273 273
Wind_Speed
10 9 4 3 3 4 3 1 1 2 1 5 3 2 2 2 1 3 6 2 6 3 3 3 3 3 3 1 4 9 9 7 7 4 2 1 1 5 3 1 1 4 10 9 8 7 6 7 9 11 11 11 12 12 11 12 11 11 11 10 9 9 9 8 8 8 8 8 9 8 8 9 9 10 10 10 12 13 13 13 13 13 13 13 14 15 15 16 16 16 16 16 15 15 15 14 14
7 7 7 4 3 2 0 1 1 0 3 6 5 4 2 2 2 6 6 8 4 2 1 2 2 2 2 2 0 4 10 9 8 5 3 6 6 4 3 5 1 5 6 9 9 9 6 6 8 10 12 11 12 12 12 12 11 11 11 10 10 9 8 8 8 8 8 7 8 8 8 9 9 9 9 10 11 12 12 12 12 12 12 13 13 14 15 15 15 16 16 16 15 15 14 14 13
7 7 6 4 3 2 3 1 1 2 4 6 3 1 3 5 6 6 7 7 5 3 1 3 1 0 5 5 3 6 3 11 7 9 5 2 1 6 3 2 5 5 5 8 9 7 7 6 9 9 12 12 12 12 12 11 11 10 10 9 9 9 8 7 8 8 8 8 7 8 8 8 8 9 9 9 10 11 12 13 12 12 12 12 13 14 15 15 16 16 16 15 15 15 14 13 13
5 6 4 3 2 3 1 1 3 3 5 5 4 4 5 5 6 7 6 5 4 2 1 2 1 0 3 9 4 9 7 6 9 4 2 5 3 3 3 3 5 1 2 7 8 8 8 8 10 8 10 13 13 12 11 11 11 11 10 9 9 8 8 7 8 7 8 8 7 8 8 8 8 8 9 9 10 11 11 10 11 11 11 12 13 14 15 16 16 16 15 15 15 15 14 13 13
4 3 4 3 1 1 1 2 2 5 6 2 4 3 5 5 6 7 5 4 3 3 3 1 1 2 7 5 5 2 3 1 11 10 2 3 4 2 1 1 3 4 2 3 8 9 9 12 9 9 9 11 13 13 13 12 12 12 11 10 9 8 8 7 7 7 7 7 7 7 7 7 7 8 8 9 10 9 10 10 10 12 11 12 13 13 15 15 15 15 15 15 15 14 13 13 13
6 3 3 1 1 0 0 2 3 6 2 0 4 4 6 5 5 6 5 5 3 3 1 1 2 1 3 5 4 3 6 2 2 5 4 3 3 2 2 3 2 4 3 2 8 9 10 13 11 10 9 11 11 12 11 12 11 10 11 11 10 9 8 8 7 7 7 7 6 6 6 6 6 6 8 8 9 10 9 9 10 11 11 10 12 14 15 14 14 14 14 14 14 14 13 13 12
3 3 1 1 2 1 2 1 7 4 5 4 5 4 5 4 3 6 5 4 4 4 2 2 3 2 7 2 7 6 5 3 4 2 4 1 2 4 9 1 1 5 4 2 9 9 10 12 10 10 9 10 10 10 11 11 12 11 9 9 10 10 9 9 7 7 7 7 7 6 6 5 6 6 7 7 8 8 9 11 11 10 10 12 13 14 15 14 13 14 14 14 14 13 13 12 12
2 1 0 1 2 1 3 4 6 3 2 7 5 7 4 3 0 2 2 2 2 2 3 2 2 3 3 6 6 3 4 8 5 4 4 3 4 6 6 7 6 4 3 11 8 7 8 11 10 8 9 9 9 9 11 10 12 12 11 11 10 10 10 9 9 8 8 7 7 7 6 6 6 6 6 6 7 7 8 11 10 11 11 14 15 14 14 13 13 13 14 14 13 13 13 13 12
2 2 0 1 2 0 2 6 5 4 4 5 5 7 5 2 3 1 6 3 3 4 5 4 4 1 5 12 7 3 3 5 7 6 5 4 6 5 5 9 8 5 5 9 8 7 6 7 7 7 6 7 9 9 10 10 11 11 11 11 10 10 10 9 9 8 7 6 7 7 7 7 6 5 6 6 6 8 10 9 11 10 11 13 14 13 12 12 13 14 14 14 13 13 13 13 13
2 1 1 1 2 2 1 4 4 3 4 4 5 5 4 2 2 3 3 4 3 3 3 4 5 3 9 12 6 3 3 6 5 5 5 6 4 5 7 7 8 4 6 3 8 7 6 8 8 8 5 6 6 7 9 9 9 9 10 9 9 8 8 8 8 8 7 6 5 6 7 7 6 5 5 6 7 7 8 10 9 10 12 13 13 12 12 12 13 14 14 14 13 13 13 13 13
1 2 1 1 2 1 2 4 5 3 4 4 4 4 3 1 1 2 4 6 2 2 4 6 1 6 4 4 4 4 6 6 6 7 4 6 3 5 5 5 5 6 5 6 5 7 6 6 10 9 8 4 5 4 5 7 8 8 7 9 9 5 8 7 8 8 6 6 4 5 6 7 6 6 4 6 7 7 9 10 10 10 12 13 12 12 12 11 12 13 14 13 13 13 13 13 13
2 0 1 2 3 1 3 6 5 4 5 5 4 4 0 3 1 2 2 4 2 4 5 6 1 3 0 6 3 4 6 10 6 4 4 3 5 6 5 4 5 7 7 5 5 6 4 5 5 7 8 8 5 4 5 4 6 7 6 5 7 7 7 7 8 9 7 5 3 4 6 7 6 5 5 6 8 8 8 9 9 10 11 12 12 11 11 12 12 13 12 12 12 12 12 12 13
0 3 3 2 3 3 1 3 4 5 3 3 6 2 0 3 1 4 3 1 2 5 4 4 1 1 2 3 4 5 12 7 5 4 3 4 4 5 5 4 5 4 3 4 4 4 4 3 5 5 6 9 8 7 5 6 5 5 6 7 6 5 5 5 7 8 8 7 5 5 5 5 5 6 5 5 6 8 8 8 7 8 10 11 11 11 11 11 11 11 11 11 11 11 11 11 11
1 1 2 1 1 1 0 3 4 4 2 4 4 4 1 1 3 3 2 2 8 6 1 3 1 5 2 6 3 4 5 6 4 3 2 4 4 5 5 4 4 3 2 2 4 4 4 6 2 4 6 5 4 6 6 6 5 5 2 4 3 4 2 3 5 8 7 6 6 7 6 5 5 5 5 6 7 7 7 5 4 8 9 11 11 11 10 11 10 10 11 10 10 10 11 11 10
2 3 1 2 1 1 1 2 4 4 3 3 3 4 3 3 2 0 4 3 5 4 3 4 2 1 1 2 1 2 4 4 4 2 1 3 5 4 5 5 4 4 5 4 6 6 6 5 5 3 2 3 4 5 4 6 8 8 7 4 4 4 4 5 5 7 7 8 8 8 7 7 6 5 6 6 7 7 7 4 5 8 10 11 11 10 9 9 9 9 10 9 9 10 11 11 10
1 2 1 1 1 1 0 0 3 1 4 4 1 4 4 3 1 0 2 2 1 3 1 3 5 3 3 6 2 2 3 3 4 1 3 2 3 4 5 6 5 4 4 4 5 4 5 4 4 5 3 1 4 4 5 6 7 9 8 8 7 6 4 3 3 6 8 9 9 9 8 7 5 6 8 7 9 8 7 4 4 8 10 11 11 10 9 8 8 8 9 8 8 9 10 10 8
1 0 1 2 0 1 1 0 2 1 4 4 3 3 2 3 2 3 0 0 1 5 8 5 3 4 6 4 2 1 3 4 6 2 1 2 3 4 5 4 5 4 3 5 4 3 2 1 3 4 4 5 4 1 3 6 7 10 8 9 9 9 7 4 2 4 6 5 7 8 9 6 5 5 5 5 7 5 6 5 5 8 10 10 10 9 8 7 7 8 8 8 7 7 6 7 6
0 0 1 3 1 4 1 3 3 6 4 4 3 2 1 5 3 1 1 1 4 8 9 6 9 10 6 3 3 3 4 5 6 6 6 5 5 5 6 5 5 5 6 5 5 6 7 5 3 3 2 4 4 4 2 5 5 6 5 5 4 6 8 8 5 4 5 4 4 5 4 5 6 6 4 5 5 7 6 7 4 9 10 10 9 10 8 7 7 8 7 5 6 5 4 3 3
0 2 1 1 3 0 3 3 5 1 5 4 4 2 2 4 1 1 1 3 5 7 5 7 8 7 6 5 4 4 5 6 6 7 6 7 6 6 5 4 5 5 6 5 5 5 6 6 6 7 6 4 3 4 3 1 6 5 4 5 4 6 5 5 4 4 3 4 4 4 3 4 4 5 5 6 4 8 7 8 7 9 10 10 9 8 8 8 8 8 7 5 2 3 2 1 2
0 1 2 3 3 4 4 5 4 6 2 3 3 3 2 3 1 1 1 3 3 3 6 6 5 5 4 4 4 4 5 6 6 6 7 6 5 5 5 5 4 5 4 4 5 3 6 5 6 7 6 6 4 4 2 3 4 6 5 5 5 5 5 4 3 3 3 2 4 3 5 3 6 4 6 9 7 5 5 5 7 9 10 9 8 5 5 5 7 7 6 5 2 2 2 3 2
1 1 2 1 1 1 3 5 5 4 6 3 2 2 2 3 2 0 2 2 4 4 5 3 5 4 4 4 4 4 5 6 6 6 6 6 5 5 5 5 4 4 4 3 5 5 6 6 5 5 7 6 4 3 4 3 1 1 4 6 4 5 4 4 3 2 3 3 1 2 1 2 4 5 4 5 6 5 5 4 4 5 5 4 6 3 3 3 2 2 2 1 1 6 5 5 5
2 2 2 2 2 2 4 6 6 3 3 2 2 2 1 1 2 2 1 2 2 1 1 4 4 4 4 3 4 4 5 5 6 6 6 6 5 5 5 4 4 4 4 4 5 5 5 6 6 4 4 5 5 3 4 2 5 4 2 2 5 6 3 2 2 2 1 1 2 4 4 5 3 2 4 2 3 3 5 5 5 5 5 4 5 5 5 5 3 3 2 2 6 5 4 4 4
1 1 3 3 2 1 1 4 2 2 0 0 1 1 2 1 2 1 3 2 4 3 4 4 4 4 3 3 4 4 4 5 5 5 5 5 5 5 5 4 4 4 4 4 4 3 4 5 5 7 3 4 6 4 3 1 0 2 5 5 5 5 6 4 4 5 7 4 1 2 3 3 3 1 2 3 3 2 3 3 4 3 4 3 5 3 3 4 4 2 4 6 5 5 3 2 1
1 0 2 3 3 2 1 3 3 0 1 1 1 0 1 1 4 0 4 4 7 5 4 4 4 3 3 5 4 5 4 3 4 4 4 4 4 6 4 4 3 3 3 5 4 4 5 6 6 9 2 3 4 4 3 1 0 4 7 9 9 9 8 8 7 8 7 6 8 7 6 4 5 5 2 3 4 3 1 1 2 2 2 3 3 1 1 3 3 5 4 5 5 4 3 1 1
3 0 2 2 1 0 2 4 2 1 3 1 3 1 4 3 2 1 6 7 6 6 4 4 4 4 4 4 3 4 4 3 3 4 3 3 4 5 4 4 4 4 5 5 5 5 5 6 5 8 1 4 5 3 2 2 4 9 8 8 8 7 7 7 7 8 8 7 7 7 5 4 6 6 7 5 5 4 5 5 4 4 2 0 2 0 1 3 3 5 4 4 4 4 3 2 3
3 3 2 2 1 2 4 3 4 4 2 2 2 5 5 4 6 1 9 7 7 6 5 4 4 4 4 3 4 3 4 4 3 3 3 3 4 5 5 4 4 6 6 6 5 4 5 7 6 6 9 4 6 2 5 9 7 8 8 8 7 7 7 7 8 8 8 8 7 7 9 8 7 6 6 6 6 6 6 5 6 5 6 6 4 5 6 6 6 5 5 5 6 4 2 4 2
2 3 2 3 5 2 4 5 5 7 4 5 4 4 5 3 3 2 3 9 8 6 6 4 4 4 3 3 3 3 4 4 3 3 3 4 4 4 4 4 5 5 6 7 6 5 5 5 5 6 7 5 8 9 7 8 8 8 7 7 7 8 7 7 7 7 8 8 8 9 9 9 7 7 7 7 6 7 7 7 6 7 7 7 6 6 6 6 6 5 4 4 5 5 5 5 5
1 2 4 6 7 6 3 5 6 3 2 5 4 5 2 1 2 3 9 7 8 7 6 5 4 4 4 4 3 3 4 3 3 4 5 4 4 3 4 4 5 5 6 6 5 6 4 5 5 6 5 7 9 9 9 8 8 8 8 8 8 8 7 7 7 7 8 7 8 8 8 8 7 7 7 7 7 7 7 6 7 8 6 6 6 6 6 6 5 4 4 4 4 4 4 4 3
1 2 3 5 3 7 9 8 6 5 1 2 4 3 4 4 5 5 10 8 7 7 7 5 5 4 4 3 3 3 3 3 4 4 4 3 3 4 5 6 6 5 4 5 6 6 6 5 5 6 5 7 10 9 9 8 7 7 8 8 7 7 7 7 7 7 7 7 7 8 8 8 7 6 7 7 7 7 7 7 7 7 4 6 6 6 6 5 5 5 6 6 6 5 5 5 5
1 4 3 5 5 8 10 7 4 4 2 5 5 2 7 11 5 7 7 8 6 7 5 4 4 4 3 4 3 3 2 3 5 4 3 3 4 4 5 6 6 5 4 4 5 6 5 4 4 4 7 8 8 7 8 8 7 7 7 6 7 8 7 7 7 6 6 7 7 8 7 7 7 6 6 7 7 7 8 7 7 7 7 8 7 6 6 6 5 6 6 4 5 5 5 6 6
2 2 3 3 3 3 3 5 6 4 2 5 3 3 5 6 6 6 6 7 8 6 6 5 5 4 4 3 4 4 3 4 4 3 3 4 3 3 4 5 6 6 4 5 5 6 6 5 4 5 7 8 7 9 8 9 8 7 7 7 8 8 8 9 8 7 8 7 7 7 8 8 8 8 6 5 6 7 7 6 8 7 7 7 7 7 7 7 6 8 7 6 3 5 4 5 6
3 1 4 3 4 0 3 5 8 6 1 4 4 2 6 5 5 6 6 7 6 6 6 5 5 4 5 4 4 5 5 3 4 4 3 4 3 3 4 5 6 5 6 5 5 5 6 6 6 7 8 9 9 9 8 9 10 8 8 8 9 9 8 9 8 8 8 8 9 9 9 9 9 9 9 8 7 7 7 6 6 5 5 6 7 7 7 7 7 7 7 6 7 8 7 7 6
4 6 3 3 4 3 1 4 5 1 5 2 7 3 4 1 5 5 4 7 6 5 6 6 6 6 5 4 4 5 5 4 4 4 3 4 3 3 4 5 5 5 5 6 6 5 6 7 7 8 9 10 10 10 11 11 10 9 9 9 9 9 9 9 8 7 8 8 7 8 9 9 10 9 9 9 8 9 8 8 7 8 7 7 7 6 6 5 5 6 7 7 7 6 7 6 5
4 4 5 4 5 2 3 1 2 3 5 4 6 5 6 2 8 7 7 8 8 6 7 6 6 5 4 4 4 5 5 5 4 3 3 3 3 4 5 4 5 4 4 5 4 5 6 7 7 8 8 8 8 9 10 9 9 10 9 9 10 11 10 8 8 8 9 8 8 8 8 8 9 10 10 8 8 9 8 8 8 8 7 6 6 6 7 6 5 5 6 6 7 7 6 5 6
5 3 4 5 6 7 4 3 5 4 5 4 6 9 10 4 7 8 9 8 8 8 7 7 7 6 5 5 4 4 4 5 4 4 3 3 3 3 4 4 4 4 4 4 4 4 4 4 6 7 7 9 10 10 11 11 11 10 10 10 11 10 9 8 8 9 8 8 9 9 9 9 8 8 8 9 9 7 7 7 8 7 6 6 7 8 8 7 6 5 5 5 6 8 6 6 6
7 6 1 3 3 2 2 2 3 5 5 5 5 6 6 4 6 5 5 8 8 7 5 6 6 6 5 5 4 4 4 6 4 3 3 3 3 3 3 4 4 4 3 3 4 3 3 4 5 5 6 5 4 6 7 8 7 7 9 9 11 9 9 9 9 9 8 9 9 9 9 9 9 10 9 8 8 8 8 8 9 9 8 8 9 10 9 8 9 7 5 7 6 7 7 7 8
7 1 3 5 5 5 3 4 2 2 1 6 6 5 6 7 7 10 10 6 6 6 7 6 6 6 6 5 5 5 4 6 4 4 3 3 3 3 3 4 4 4 3 4 4 3 3 4 4 6 5 5 5 6 5 6 7 8 9 10 10 8 8 8 9 8 9 9 10 10 9 9 9 10 10 9 9 9 9 8 9 9 8 9 9 9 8 9 8 8 7 4 7 8 9 9 11
6 3 4 5 2 6 5 3 2 1 0 2 3 5 8 7 5 8 6 7 9 9 8 8 7 7 6 6 6 5 6 5 5 4 4 4 3 3 3 3 3 4 3 3 3 3 3 4 5 5 5 7 7 6 7 7 7 6 8 8 8 7 7 8 9 8 8 9 10 10 9 9 10 10 9 9 10 9 9 9 9 9 8 8 8 8 9 10 11 10 8 7 5 7 7 8 10
5 4 2 3 6 5 2 6 2 1 2 5 5 9 9 9 8 7 12 14 10 11 10 9 10 8 6 6 7 6 7 6 5 5 4 4 3 4 3 3 4 4 3 3 1 1 4 5 5 6 7 6 7 6 7 8 6 7 8 7 9 9 8 8 8 8 8 10 10 9 9 9 9 10 10 9 9 9 9 8 8 7 9 8 9 10 10 11 10 10 10 8 6 6 5 7 10
2 2 2 6 3 3 2 0 1 1 2 2 3 8 9 8 9 7 12 11 3 2 3 3 7 9 8 7 7 8 7 8 7 6 6 5 4 4 4 4 4 4 3 2 2 3 4 5 5 6 7 6 7 7 9 9 9 9 10 10 9 10 9 7 9 9 9 10 11 9 10 9 10 10 10 9 9 9 9 9 8 9 9 8 8 9 10 11 10 10 9 10 6 7 6 8 7
4 5 5 4 4 5 6 1 2 3 4 4 5 8 11 9 11 10 3 4 5 2 4 2 3 3 5 5 6 6 8 8 8 8 7 6 6 5 5 5 5 4 2 2 3 3 4 5 6 6 6 6 7 8 10 10 11 10 10 10 8 9 8 7 8 9 9 8 9 10 9 9 9 9 9 10 9 10 9 9 9 8 9 8 8 8 9 8 8 8 9 9 9 5 7 5 8
5 6 9 7 5 6 4 1 3 1 3 6 6 4 4 7 14 12 5 2 3 3 4 4 4 2 5 6 5 5 6 6 8 8 8 7 6 6 6 5 5 5 3 2 3 4 4 5 5 5 6 6 7 6 7 7 7 8 6 7 9 8 9 8 8 8 8 8 8 6 9 9 9 9 9 9 9 8 9 9 8 8 8 8 8 7 7 8 9 9 8 6 9 9 4 7 7
3 3 3 10 8 5 3 5 3 3 3 2 0 5 7 4 7 2 5 7 7 4 7 6 7 7 5 6 6 5 6 7 7 6 6 7 6 6 6 5 5 5 3 2 4 4 5 5 5 5 4 4 3 4 4 4 5 6 7 7 8 8 10 7 6 6 7 6 7 8 8 8 8 9 9 9 9 9 8 9 8 8 8 7 7 7 8 8 7 7 7 8 7 7 8 8 8
4 1 3 1 0 1 2 2 3 6 2 1 3 3 7 11 10 3 7 7 8 7 8 8 8 8 8 7 8 7 6 5 7 8 6 6 6 6 7 6 6 5 4 3 4 4 5 5 5 5 4 5 5 6 7 7 8 8 9 8 8 8 9 9 7 7 6 6 8 8 7 8 8 8 8 9 9 9 8 9 8 8 8 8 7 7 7 7 7 7 8 8 7 7 7 7 6
2 0 4 2 2 0 1 1 3 3 3 6 4 2 4 7 3 7 11 4 7 11 12 11 10 9 9 9 9 9 8 6 6 7 7 7 7 6 6 6 6 5 4 4 4 4 5 6 6 5 6 5 6 7 8 8 8 8 8 9 10 7 9 8 7 7 7 6 8 6 7 7 7 8 8 8 8 8 8 8 8 8 8 8 7 7 7 7 7 7 8 9 7 7 7 6 6
1 2 5 4 3 1 0 1 2 3 2 9 5 6 5 15 4 3 3 4 6 12 13 12 12 11 11 10 9 10 9 8 7 7 7 6 6 6 6 6 6 4 4 4 4 5 5 5 7 7 6 6 6 7 8 8 7 7 8 8 11 9 7 8 6 7 7 5 8 7 6 7 6 7 8 8 8 8 8 8 8 9 8 7 7 7 6 7 7 7 7 6 7 7 6 7 6
6 4 4 2 1 1 0 1 0 2 9 10 7 9 7 10 2 9 9 8 11 6 4 6 8 9 9 8 11 10 11 10 9 8 7 7 6 6 7 7 6 4 4 4 5 5 5 6 7 8 6 7 6 7 8 8 7 6 8 8 9 10 9 8 8 7 7 6 7 7 6 6 7 7 7 7 7 7 8 7 7 7 7 6 7 7 7 6 6 6 6 6 7 7 6 6 7
7 2 3 3 0 3 0 0 2 3 11 4 13 10 12 10 2 3 4 1 5 9 10 13 13 13 12 10 11 11 10 10 10 10 9 9 8 6 6 7 7 5 5 5 5 5 6 6 8 9 7 7 6 7 8 7 7 7 7 8 9 8 8 7 8 8 7 7 6 7 6 7 7 6 6 7 7 7 6 7 6 6 7 7 7 6 6 6 5 6 6 6 6 5 5 5 5
3 5 5 6 2 2 2 2 5 8 10 1 3 12 5 19 11 1 2 1 4 2 10 15 15 14 12 11 12 10 10 9 11 10 10 9 9 9 8 7 7 6 6 6 6 5 6 7 8 10 8 6 7 7 8 7 7 6 6 7 7 8 8 8 7 8 5 7 7 7 7 7 6 6 6 7 6 6 6 7 7 7 7 6 6 6 6 6 6 5 5 4 5 5 5 5 5
7 8 8 6 3 4 5 4 3 3 4 1 0 2 8 2 4 13 12 2 1 3 2 12 15 16 15 13 11 10 10 10 10 10 9 9 9 8 7 8 7 7 7 7 6 6 6 7 7 10 8 6 6 7 7 8 7 7 7 7 8 8 8 8 7 8 7 7 7 7 7 6 6 6 6 6 5 5 6 6 6 6 5 6 6 7 6 6 5 5 4 5 4 4 5 4 4
11 6 10 10 8 3 4 6 8 6 3 0 2 5 6 5 7 4 4 2 3 4 2 8 8 10 10 9 9 10 10 9 9 9 10 10 10 8 8 8 7 7 7 7 6 6 7 7 8 10 9 7 7 7 7 8 8 7 7 7 7 7 8 8 7 7 7 7 7 7 7 6 7 6 6 5 5 5 4 5 5 5 5 6 5 6 5 4 4 4 4 4 4 4 5 5 5
6 6 2 5 10 1 8 0 0 1 1 2 2 6 2 6 1 2 2 3 2 3 5 9 10 10 11 11 12 12 11 11 9 9 9 9 9 8 8 8 7 7 8 6 7 7 8 8 8 8 9 8 8 7 7 7 7 7 7 8 8 8 7 7 7 7 7 7 7 7 7 7 6 6 5 5 4 4 4 4 5 6 5 5 4 4 4 4 4 3 3 3 4 4 5 5 4
5 5 10 7 1 5 4 2 1 1 2 10 4 5 6 2 1 3 2 3 1 1 5 7 10 11 11 11 11 11 11 11 10 11 10 10 9 7 8 8 7 8 8 7 7 7 9 10 10 9 8 7 8 7 7 7 8 8 7 7 7 7 7 7 8 8 8 7 7 7 7 7 6 5 5 4 4 4 5 5 5 5 5 4 4 4 4 4 4 3 4 4 5 5 5 5 5
7 5 6 4 4 3 3 5 1 2 7 8 8 10 3 4 9 4 4 4 4 4 5 8 8 10 12 11 11 12 12 11 9 8 7 8 8 8 8 7 7 8 8 8 8 7 8 8 10 11 10 10 7 8 8 7 8 8 8 8 7 7 7 7 7 8 7 8 7 7 6 6 5 4 4 4 4 5 5 6 5 4 4 4 4 3 4 4 4 4 4 4 4 5 4 5 5
3 4 1 9 3 4 3 2 8 2 7 6 3 5 8 12 10 3 7 8 9 9 7 9 11 12 12 11 11 10 9 10 11 11 11 10 10 10 9 9 7 7 7 7 8 8 8 7 8 9 10 9 9 8 7 7 7 7 6 7 7 7 6 6 6 7 7 8 7 7 6 5 5 4 5 5 5 5 5 4 4 4 4 4 4 4 4 4 4 4 4 5 4 5 4 4 5
1 0 2 2 2 2 7 9 1 3 8 3 10 5 13 9 8 14 13 15 14 12 10 13 15 16 14 13 14 14 14 13 13 12 11 11 10 10 10 10 10 10 9 8 8 8 9 9 9 8 8 8 8 9 8 9 7 8 8 7 6 6 6 6 6 7 7 7 6 6 6 5 5 5 5 5 5 5 4 4 4 4 3 3 4 4 3 4 4 4 4 5 4 4 4 4 4
4 1 3 2 1 1 2 2 5 4 3 6 7 9 6 4 9 14 15 17 15 18 18 15 14 14 14 14 15 15 15 14 14 13 12 12 11 10 8 7 7 7 6 7 8 9 8 8 8 9 11 10 9 8 8 7 8 8 9 8 7 6 7 7 8 7 7 6 6 5 5 5 5 6 5 6 6 5 4 3 3 3 3 2 3 3 3 3 3 4 4 4 4 4 4 4 4
15 16 14 15 11 6 3 9 3 3 3 7 5 15 3 1 5 5 11 12 15 18 19 16 14 14 15 13 13 14 14 13 14 13 12 11 10 10 8 7 6 8 8 8 8 7 7 8 8 9 9 9 9 8 8 8 7 8 7 8 7 6 6 7 7 6 7 6 5 5 5 5 7 5 6 5 5 3 3 2 2 2 2 2 2 2 3 3 3 3 4 3 4 4 4 4 4
Wind_Direction
299 287 259 274 296 271 325 216 334 209 202 62 90 36 81 60 239 96 48 119 70 60 21 33 3 8 22 121 42 71 41 49 20 78 126 171 39 57 42 22 24 131 115 119 122 117 123 129 140 136 140 137 135 129 127 125 122 118 115 112 111 108 105 103 98 94 92 90 84 87 88 90 84 79 92 97 99 97 96 94 90 87 81 76 72 69 66 62 59 54 52 49 45 41 36 34 33
297 311 300 259 268 351 304 116 292 14 76 76 75 117 120 174 74 49 67 67 46 73 20 42 16 346 247 259 262 87 53 50 86 86 82 101 118 77 54 357 323 128 112 123 131 133 134 129 137 138 137 139 137 133 132 128 126 121 121 119 115 112 109 106 100 100 98 94 93 89 91 85 76 81 88 98 96 98 95 91 84 79 79 76 72 69 65 60 55 51 49 48 44 39 37 35 34
311 312 312 287 225 197 299 218 304 171 117 90 61 122 246 70 65 67 64 56 63 63 86 119 3 285 313 166 71 67 94 38 45 94 88 54 15 26 21 1 336 133 125 128 133 137 132 133 136 141 141 141 138 136 135 131 128 125 123 121 118 118 117 110 110 102 101 100 99 95 91 84 82 80 80 90 95 91 87 85 82 77 74 74 71 66 62 55 51 48 46 43 41 38 35 35 36
286 283 292 339 324 136 276 194 212 333 94 127 95 28 48 78 79 81 65 63 53 339 307 89 115 223 353 61 28 88 42 47 27 20 95 45 13 5 355 358 296 116 101 125 138 135 127 134 135 137 144 143 143 140 135 138 135 128 126 124 121 118 121 122 114 114 107 104 101 102 93 91 87 84 86 91 92 93 92 87 84 77 68 73 73 67 60 52 48 46 42 39 37 35 34 34 35
270 257 223 298 352 267 333 253 327 52 31 24 111 105 90 86 82 86 79 91 64 25 359 18 126 357 67 55 12 37 323 245 48 34 61 94 335 45 25 331 298 86 138 150 134 119 125 130 130 136 140 147 146 146 145 146 144 140 137 133 129 126 123 119 119 117 113 107 108 105 105 102 91 89 88 92 100 102 99 98 97 91 87 77 73 68 60 53 49 46 41 38 35 35 34 35 37
246 241 204 144 316 131 317 322 60 69 4 112 113 87 73 74 91 99 110 91 102 65 351 5 24 82 50 47 16 60 340 34 46 54 7 54 349 347 161 224 258 121 168 185 134 115 136 137 137 140 142 148 153 148 149 148 144 143 145 138 137 134 128 126 130 124 122 115 113 109 109 102 99 94 94 96 104 109 110 108 96 92 88 85 78 69 63 57 51 47 43 38 35 36 36 37 39
335 345 178 219 270 108 249 311 90 93 354 39 100 105 93 78 120 128 120 110 77 93 336 49 349 83 98 147 84 70 38 351 56 28 48 30 19 14 355 275 166 120 159 64 82 111 127 130 136 134 136 147 149 155 151 155 149 149 143 142 141 140 138 141 142 138 134 136 131 125 121 117 102 94 93 96 101 109 117 108 102 95 85 77 72 67 63 59 53 49 44 39 37 38 38 39 41
237 27 13 352 292 98 277 91 51 67 45 44 54 94 95 103 285 152 109 126 156 140 125 78 80 9 109 97 105 56 70 65 79 62 59 35 39 26 9 342 89 122 124 76 89 90 107 121 125 128 137 152 157 152 154 158 153 153 150 151 151 145 149 150 144 146 147 148 148 141 138 130 119 111 109 109 109 113 118 113 103 91 85 78 75 72 68 62 56 51 45 42 41 41 40 40 41
217 155 116 46 258 96 333 61 93 83 108 88 68 65 72 54 14 353 98 117 111 63 49 20 338 277 101 84 82 119 41 66 72 67 70 42 55 41 21 19 25 41 68 103 109 118 104 85 95 109 125 151 154 157 160 164 158 157 158 155 154 152 154 153 147 147 147 154 156 152 139 132 126 122 127 124 123 121 112 104 96 91 87 87 84 80 72 65 60 54 48 45 44 44 43 42 41
283 145 328 280 339 194 145 135 114 110 92 97 123 119 118 172 116 333 122 102 56 89 57 18 318 79 115 101 118 41 46 23 51 49 65 60 48 67 45 31 10 24 39 52 110 110 109 96 74 66 72 152 158 162 155 164 167 161 154 156 154 155 153 152 151 143 149 156 164 149 141 124 120 125 137 124 105 113 112 106 101 96 97 94 90 84 77 69 64 58 51 48 49 47 46 44 43
300 169 169 10 252 158 199 109 98 130 114 96 78 87 85 38 193 83 18 85 27 82 94 342 357 357 61 49 72 114 63 49 40 34 32 95 59 77 68 34 28 18 44 8 80 126 129 117 102 78 53 84 160 125 136 161 165 163 173 161 143 186 152 154 150 145 150 152 168 146 137 127 125 108 82 116 111 113 123 112 108 109 105 101 96 91 83 76 71 64 57 53 52 52 50 47 44
325 185 78 281 265 89 348 103 115 96 125 128 120 123 292 128 221 177 178 135 147 112 60 6 34 9 322 130 133 114 67 38 31 16 2 83 97 69 69 49 43 31 20 7 3 60 111 131 122 104 93 76 92 118 117 147 150 172 164 146 158 181 157 157 149 148 150 153 135 103 113 128 126 117 97 110 119 129 127 119 114 111 105 104 103 94 86 80 74 69 65 61 59 57 57 54 49
312 355 314 270 286 25 325 109 112 115 136 190 129 84 253 189 2 24 52 23 180 103 54 22 323 254 10 80 124 60 37 10 12 351 4 37 74 96 81 73 58 56 30 1 20 46 43 140 138 134 129 115 99 99 122 132 181 163 160 171 178 180 155 153 151 153 154 152 133 125 113 113 126 123 114 125 119 126 125 119 119 110 108 107 99 91 85 82 78 74 71 68 65 63 62 60 56
14 30 349 303 295 38 18 64 116 132 191 93 94 140 188 346 59 355 326 5 48 75 49 329 8 29 125 113 104 52 29 358 344 353 342 81 88 87 95 79 76 63 36 33 60 32 48 6 64 145 153 162 157 136 138 154 175 141 165 143 156 138 300 149 142 152 157 140 124 124 121 115 117 127 134 120 127 131 115 118 124 110 112 110 102 95 90 87 83 80 76 72 71 70 68 64 58
353 352 304 290 342 38 44 127 173 193 102 120 140 149 124 51 65 313 41 40 83 76 118 49 346 293 349 317 107 15 347 339 325 287 51 71 71 87 107 109 88 74 67 49 27 25 21 13 348 17 159 173 191 167 165 171 172 152 156 164 148 137 100 301 138 139 145 131 125 132 133 123 122 123 120 121 126 119 118 131 125 115 121 115 109 99 94 90 87 83 81 77 75 76 74 67 59
339 359 281 320 204 163 324 290 61 191 121 103 168 118 133 107 19 54 55 32 123 115 80 51 33 27 29 69 49 338 347 329 302 308 132 96 126 135 129 115 94 84 57 66 75 44 9 357 357 329 329 220 200 182 179 162 170 159 169 164 156 147 105 32 1 140 137 137 137 141 144 136 139 136 135 127 129 129 128 132 105 117 126 121 115 110 102 97 94 87 84 81 78 76 77 79 70
331 157 4 236 298 168 143 156 128 20 104 100 168 180 190 140 98 73 16 36 278 106 74 31 57 48 69 71 68 357 15 356 340 45 17 117 165 118 65 58 92 57 76 64 41 47 114 0 3 339 336 335 325 272 185 147 156 161 168 166 164 161 155 170 174 122 128 133 143 149 150 151 154 139 147 133 131 130 128 132 134 127 130 128 126 123 114 107 102 91 85 86 86 85 79 72 71
310 247 205 267 195 73 346 12 83 160 114 152 119 7 322 132 170 85 73 185 243 97 90 95 77 78 94 88 66 50 50 29 19 46 30 25 21 47 54 40 40 61 29 29 36 29 7 2 1 319 298 318 322 333 354 124 141 168 157 155 159 166 172 184 181 170 164 150 149 153 170 174 161 142 156 140 152 143 141 134 135 134 133 133 138 133 127 121 113 103 93 93 103 123 117 91 55
333 289 307 69 15 217 353 70 45 326 105 101 95 33 343 78 279 127 274 185 201 112 105 118 104 107 89 70 48 50 52 45 34 46 48 37 28 50 41 39 43 34 31 1 22 30 13 358 3 347 342 323 327 320 324 77 148 171 189 165 166 164 174 185 177 186 190 158 173 183 215 209 132 136 149 160 174 155 147 148 142 141 137 142 145 140 141 136 123 111 116 116 127 124 232 147 135
24 69 337 41 55 62 34 55 76 28 50 132 122 89 313 94 38 52 228 351 258 86 139 142 99 94 70 63 48 47 50 55 44 46 51 41 39 33 44 31 37 46 17 351 17 9 28 6 354 338 338 327 320 294 275 265 159 176 173 169 162 169 160 180 183 190 185 190 168 205 210 139 110 124 137 151 146 139 131 131 133 133 135 145 146 138 136 116 121 130 139 147 150 229 46 48 68
357 286 27 77 32 115 60 64 61 52 14 49 51 81 254 101 78 72 312 345 87 114 26 51 103 88 82 76 63 43 51 51 47 46 50 42 39 34 32 50 36 43 358 3 8 15 21 2 353 335 332 325 315 313 316 303 307 161 148 144 156 152 141 159 184 188 150 159 188 218 305 57 90 124 120 144 158 135 139 146 129 139 147 150 155 142 137 136 150 138 150 188 154 66 42 30 31
316 60 117 72 322 83 83 74 44 67 43 346 76 279 35 25 214 203 234 231 146 94 72 78 80 77 78 70 74 59 54 55 48 42 48 46 38 30 22 28 37 40 13 18 15 360 15 342 340 314 303 306 295 281 279 323 12 349 122 129 127 131 127 92 106 100 127 94 31 354 42 65 48 69 148 139 2 121 143 157 163 157 152 161 190 164 163 167 203 168 178 136 78 69 56 36 32
335 83 56 29 48 75 110 99 49 325 56 285 252 7 21 311 301 267 72 48 127 76 101 96 86 89 97 91 71 70 59 56 52 47 47 41 44 38 24 24 14 32 10 19 6 7 5 341 317 305 264 281 286 276 273 318 346 345 52 56 55 47 78 41 41 32 10 49 207 247 26 14 121 166 81 89 172 131 132 183 145 157 150 181 199 214 180 169 185 147 116 97 106 96 79 73 55
216 227 143 76 343 48 253 101 119 353 16 237 44 305 281 297 265 41 104 104 106 114 102 105 108 104 96 86 75 78 76 62 72 69 56 52 48 56 24 17 15 33 18 23 12 5 1 330 314 295 216 231 266 248 234 175 6 47 33 46 49 53 63 53 49 54 51 32 34 35 35 18 34 32 52 58 60 21 11 60 108 110 177 207 174 285 177 130 88 68 94 118 118 125 132 166 158
279 76 54 84 354 237 115 123 176 220 225 291 75 329 250 220 248 178 124 133 130 123 127 117 119 106 94 84 87 89 76 66 52 73 82 57 51 70 38 21 15 35 24 17 7 5 349 317 315 313 336 218 263 229 205 146 57 61 60 62 59 52 66 57 54 48 45 26 31 45 37 22 30 27 41 40 52 67 44 57 63 33 10 48 111 331 24 100 83 72 68 75 102 124 160 149 95
17 60 297 127 215 201 179 173 196 195 214 209 216 244 257 252 80 309 128 125 131 134 122 134 131 123 99 95 88 81 88 66 52 48 63 74 44 51 40 23 10 29 21 11 359 352 329 316 333 340 344 327 267 132 49 55 69 67 61 65 65 61 60 62 56 52 44 33 21 29 36 31 38 45 40 35 43 39 41 10 57 44 45 32 41 42 31 54 52 47 41 44 36 18 84 49 84
279 353 341 302 275 227 174 225 218 190 205 173 210 230 248 120 109 216 119 134 135 145 139 146 143 116 110 108 85 73 80 70 50 35 58 58 45 42 46 24 15 22 14 4 356 342 321 322 352 1 6 22 43 71 70 63 66 74 68 66 62 58 56 57 59 60 52 42 30 27 36 34 37 39 50 42 44 45 41 30 26 39 39 28 29 44 42 51 58 55 50 56 59 35 29 33 22
326 19 300 262 245 246 217 210 243 130 218 182 194 244 79 145 101 228 144 144 151 147 147 153 140 132 122 109 99 73 71 59 55 52 45 44 33 28 46 25 16 10 11 358 346 323 324 1 6 10 15 41 59 64 73 70 66 73 73 70 66 62 61 62 60 57 57 50 42 40 40 36 35 46 49 54 54 53 45 43 42 41 24 35 32 35 45 44 46 50 54 54 52 43 20 31 340
11 290 301 291 258 220 206 213 213 174 234 151 180 268 231 177 226 117 136 149 166 148 149 153 136 128 123 115 104 81 63 65 54 52 45 37 45 23 38 40 19 4 6 348 340 329 16 0 11 19 33 54 73 75 78 80 74 74 80 74 75 72 67 67 62 53 56 52 43 44 44 44 47 49 51 53 56 55 50 44 44 49 32 42 48 39 43 52 54 36 30 32 30 29 37 7 345
298 247 230 295 268 255 212 180 120 141 159 173 119 275 233 215 129 132 134 158 164 145 151 152 140 139 141 133 115 96 98 81 65 60 36 39 42 15 41 34 24 11 348 344 343 1 14 1 12 37 44 63 70 71 76 83 77 67 70 76 74 72 68 67 63 57 52 49 45 38 37 36 48 55 64 68 70 66 57 51 47 38 30 29 32 36 43 28 30 39 21 43 46 43 33 8 356
240 302 147 233 337 275 76 127 154 168 136 180 171 208 319 105 125 139 164 158 169 162 158 159 150 144 142 127 129 126 110 91 92 82 76 64 36 59 44 39 27 15 351 355 0 345 25 27 15 54 51 61 71 75 68 74 71 67 62 61 62 62 63 61 54 52 51 45 42 37 35 35 34 33 36 58 70 74 72 65 57 51 43 43 46 36 43 41 30 34 31 12 38 55 38 25 9
214 327 252 214 198 204 207 136 171 170 260 227 160 283 244 170 156 157 169 167 179 174 157 158 155 155 153 153 149 136 125 119 110 85 75 77 50 63 62 43 36 21 5 356 355 350 43 40 37 62 59 60 64 69 69 72 73 67 65 60 65 60 63 61 54 52 51 50 45 41 31 32 33 34 37 31 42 48 49 45 41 62 68 66 60 54 54 50 47 49 41 44 39 34 26 21 14
193 177 273 291 198 204 176 201 199 356 135 209 187 235 83 180 157 165 166 178 192 186 163 157 166 162 153 155 155 128 132 127 111 94 67 68 55 61 62 55 42 26 9 360 356 6 45 57 39 57 66 65 69 76 76 69 70 69 67 63 62 61 57 54 50 48 50 50 49 47 39 39 38 34 37 38 47 50 48 42 31 27 28 48 54 51 53 49 58 59 51 45 54 49 33 18 5
243 173 219 227 225 227 219 69 241 171 168 180 230 245 254 132 162 169 183 187 183 210 166 167 164 160 157 146 144 151 152 140 111 89 78 73 72 64 76 65 48 40 18 7 360 19 66 73 62 61 69 75 76 70 78 75 73 73 71 68 65 63 59 58 56 52 51 47 44 43 40 43 46 47 42 40 50 50 51 48 42 38 33 39 54 54 53 44 45 55 65 58 59 49 33 17 353
220 180 211 261 246 226 229 177 185 157 221 244 196 222 250 176 177 182 185 191 188 199 180 168 160 162 150 157 157 153 133 121 103 95 86 82 64 73 72 68 56 46 29 12 42 44 52 80 84 82 85 89 92 93 93 94 89 83 81 75 67 63 59 57 54 55 50 50 47 44 41 38 34 43 53 53 54 45 48 52 51 40 35 32 39 42 37 31 34 34 49 58 61 49 32 13 349
284 312 309 334 335 308 276 44 160 168 180 221 236 241 247 190 184 174 194 197 195 203 165 156 166 155 159 161 148 142 138 105 99 98 96 78 79 68 85 80 59 54 35 17 55 37 32 67 92 85 83 95 98 85 82 87 87 83 80 75 69 61 62 60 54 56 50 50 46 46 43 42 37 35 34 37 48 44 42 39 43 39 35 35 38 40 34 26 21 19 21 58 58 37 29 14 358
283 16 285 276 282 273 302 133 135 251 248 229 241 254 260 264 181 196 186 181 205 204 174 172 167 162 166 160 155 148 135 121 120 117 103 111 97 92 87 91 81 77 57 57 55 29 36 61 65 62 49 53 70 86 79 85 90 90 79 73 76 65 64 64 61 53 53 51 48 48 47 46 44 42 38 40 44 45 45 41 41 39 38 40 41 40 32 29 25 31 21 44 69 47 27 15 5
264 289 296 285 253 265 260 184 199 69 156 273 257 275 266 262 257 175 164 175 204 204 185 181 176 173 166 160 148 147 116 122 137 126 119 100 104 109 93 80 94 74 35 51 44 19 59 55 52 57 54 56 58 63 72 65 59 67 91 79 86 75 68 65 67 55 58 55 51 49 49 48 49 49 44 44 47 48 49 45 43 43 41 43 46 41 37 33 30 32 26 26 35 65 48 24 12
236 221 251 263 255 262 289 92 124 59 75 274 268 264 265 263 259 164 178 186 203 206 188 184 171 169 163 161 151 142 130 142 155 132 127 112 114 105 95 93 81 77 58 45 12 63 63 58 55 58 54 55 53 63 74 81 77 78 90 95 94 91 71 75 79 74 65 63 55 51 49 49 49 50 46 46 49 45 48 49 43 41 43 41 42 37 32 34 28 29 29 33 16 32 52 31 28
261 227 199 239 271 298 284 18 134 224 179 278 331 306 279 274 264 237 195 190 175 111 138 145 163 166 162 169 160 151 154 149 154 146 148 147 136 117 109 103 99 89 54 26 19 67 62 61 66 68 70 65 71 74 89 88 89 91 87 96 89 90 95 81 77 68 63 61 55 50 49 48 48 51 46 48 51 49 47 49 45 42 39 37 44 45 35 32 25 25 25 27 26 44 26 19 26
212 216 233 241 225 232 218 230 230 165 251 247 290 282 274 247 247 235 133 61 80 114 89 69 23 102 126 126 136 158 159 155 151 151 139 146 143 137 130 121 105 95 80 44 37 60 74 73 79 84 82 87 89 92 94 102 105 99 101 101 93 90 74 69 70 61 56 59 62 48 45 44 47 49 45 45 48 47 45 45 47 45 46 37 40 47 44 34 28 25 24 29 30 41 34 24 15
244 217 208 229 236 253 259 234 105 353 283 202 170 322 265 223 224 221 156 93 177 160 157 182 173 138 114 133 151 153 147 154 149 147 150 150 137 125 124 121 114 116 92 41 35 79 83 84 82 86 98 107 115 113 113 113 111 118 114 99 97 91 80 68 65 73 67 59 61 59 51 47 48 49 46 46 47 47 47 44 46 48 47 43 40 43 42 37 30 28 18 30 29 21 50 37 30
231 277 213 214 226 270 321 319 2 295 243 338 166 188 275 345 310 182 176 190 202 163 204 200 181 181 169 171 164 161 150 146 142 138 142 135 139 140 135 133 129 116 103 93 81 81 78 78 78 75 77 69 76 95 102 90 85 84 86 89 96 101 102 81 87 78 81 78 75 64 59 50 47 52 46 46 45 44 46 44 44 45 46 46 42 46 43 38 33 30 19 27 31 28 28 45 32
243 262 351 99 114 211 241 261 225 250 331 231 175 163 274 288 247 202 179 182 204 200 210 205 193 184 180 178 170 162 161 155 142 142 141 139 143 145 139 125 116 117 111 87 78 81 86 91 90 84 70 64 56 67 76 80 91 92 97 99 95 94 95 105 95 93 85 87 80 73 68 57 50 49 51 46 45 44 44 45 44 44 45 38 39 44 45 37 37 32 31 27 28 35 36 44 32
191 238 107 78 96 254 303 239 254 251 355 266 172 184 297 248 277 151 156 174 209 222 209 206 196 180 176 179 164 163 161 155 146 147 150 148 150 137 125 112 110 108 103 104 102 94 91 91 91 83 75 67 65 74 82 82 89 97 102 109 103 93 100 102 99 92 92 83 83 74 72 67 58 51 49 51 47 45 45 47 43 44 43 37 34 35 35 37 38 37 31 28 27 24 34 39 44
206 149 63 83 93 73 290 267 247 304 253 247 169 174 221 275 187 145 193 229 224 226 205 199 189 176 174 173 160 158 154 150 150 149 139 135 124 121 120 115 102 109 116 107 99 96 97 97 96 94 87 86 85 83 88 89 94 103 107 109 112 111 107 102 98 95 90 85 82 75 69 66 60 53 44 43 45 42 46 45 45 43 41 39 38 33 30 35 34 34 35 36 31 33 20 37 38
150 122 95 70 83 177 64 214 84 356 243 239 172 191 178 281 228 182 168 213 216 200 155 169 168 166 173 170 159 159 155 153 151 145 138 124 114 119 128 129 124 116 121 113 108 112 112 106 107 99 98 93 90 92 94 99 103 109 113 114 112 115 114 114 111 100 94 89 89 82 76 69 63 57 46 39 41 41 42 44 48 46 42 40 40 34 27 27 36 33 29 33 35 34 21 37 33
131 137 123 118 348 52 298 299 170 196 263 182 186 188 186 216 286 183 194 346 204 179 171 168 171 173 172 168 164 159 156 153 147 142 136 131 133 143 137 133 139 140 120 113 120 118 117 118 114 105 96 96 96 99 100 102 107 107 106 109 111 113 114 112 111 111 111 106 101 93 83 75 65 61 51 49 41 38 43 44 42 46 43 37 35 34 28 21 29 39 29 38 37 28 21 35 42
164 120 118 128 215 67 278 143 216 209 244 294 212 181 211 235 226 76 190 219 15 58 164 168 169 169 169 167 164 159 155 151 148 146 144 148 154 159 151 146 140 143 138 136 138 131 124 120 118 111 107 107 106 110 111 110 106 106 107 104 101 102 103 104 105 101 100 98 97 94 87 84 72 62 49 51 45 44 44 45 42 42 39 35 31 30 25 21 17 42 35 34 42 29 18 22 46
175 163 161 138 189 208 240 192 223 266 258 262 199 23 255 349 276 227 229 106 15 335 171 161 163 168 168 164 160 155 157 159 155 152 153 157 159 162 154 149 147 143 142 142 141 135 129 122 118 113 118 117 117 113 113 109 103 103 101 102 100 101 99 98 95 98 95 92 94 97 96 93 87 80 68 57 45 53 51 49 50 47 44 41 35 27 25 16 14 39 38 33 38 26 11 18 32
198 178 170 186 176 172 220 184 215 216 214 326 268 108 235 111 242 352 48 56 358 321 89 134 140 145 147 148 147 149 157 161 157 156 159 162 162 161 154 151 148 144 144 143 140 137 130 125 124 124 125 123 119 117 113 108 105 100 99 97 98 96 98 96 93 92 95 96 92 95 90 83 83 78 75 67 51 50 63 66 57 53 44 42 39 30 20 12 0 33 34 33 33 28 4 12 23
208 190 190 226 213 116 230 190 23 33 9 291 229 202 209 199 347 79 89 63 12 344 99 123 132 140 146 153 161 166 166 163 160 157 159 161 159 155 150 150 147 145 144 145 143 141 133 132 130 130 130 129 124 118 111 109 102 96 91 94 94 96 95 94 92 88 87 90 92 90 90 89 88 87 77 75 63 58 54 67 62 53 46 44 43 37 23 13 359 37 22 33 40 18 6 9 9
200 148 215 203 43 198 282 354 68 100 4 252 145 279 287 346 271 166 172 109 97 310 145 140 149 152 158 167 169 170 168 163 165 166 165 157 154 157 153 148 147 146 147 152 150 145 141 138 136 131 128 125 122 115 111 107 107 105 101 98 98 96 98 102 104 101 96 90 89 86 89 90 88 86 92 88 86 68 61 58 58 57 47 45 42 33 25 13 6 28 20 37 44 18 12 7 1
103 196 217 88 77 72 149 239 46 179 234 264 151 213 231 149 261 142 152 170 183 212 192 161 162 160 170 178 174 174 171 169 163 155 157 157 157 153 148 147 151 152 151 147 145 142 139 140 140 136 136 131 126 121 119 119 116 109 105 100 96 101 107 106 104 105 104 100 92 89 90 92 100 100 98 91 79 69 59 60 56 49 49 45 45 33 28 12 13 24 17 32 41 28 11 356 349
129 174 249 145 245 248 223 87 250 224 235 258 217 206 227 190 222 143 204 194 197 198 197 170 174 180 183 176 173 171 160 157 164 166 166 165 164 163 158 154 151 149 149 145 143 138 137 137 139 140 139 136 132 128 123 115 112 113 113 111 113 109 104 102 99 96 94 96 98 103 107 106 94 91 88 79 74 68 59 55 64 50 48 48 33 30 24 9 13 31 14 28 14 19 10 353 335
106 243 337 268 89 214 149 196 245 156 263 341 261 135 258 182 222 176 196 201 191 177 191 197 189 186 180 178 175 175 172 173 174 172 172 168 166 165 162 159 158 157 154 149 143 140 142 142 141 139 131 129 128 128 128 124 122 121 118 111 106 109 107 107 104 104 102 104 110 110 110 106 108 99 87 81 76 68 66 60 54 60 44 46 37 24 18 13 16 26 18 20 1 12 4 353 340
228 142 239 220 180 296 101 297 199 182 222 234 287 276 258 227 178 174 193 193 184 178 191 195 191 188 186 181 177 177 178 177 177 174 172 169 165 162 158 153 148 145 145 144 147 150 147 144 145 145 142 140 137 135 130 129 125 125 122 121 121 114 108 102 101 100 103 103 102 108 110 111 95 80 85 80 72 68 62 70 64 61 64 56 43 31 7 28 23 16 7 10 7 8 5 342 349
191 187 198 189 166 183 174 249 156 216 190 240 206 252 253 312 353 185 184 185 179 190 184 186 190 184 184 182 180 180 179 181 176 174 170 164 161 159 153 145 143 147 152 151 151 147 148 151 150 144 142 145 142 139 138 134 129 127 125 121 115 108 102 102 102 102 103 104 109 112 117 99 91 81 79 83 88 85 76 77 84 67 65 58 43 49 18 33 28 12 9 4 8 7 356 345 349